"Pseudo-MPEC" for A10IfLQ

Created 2022 Aug 16 3:22:04 UT using Find_Orb

Click here for an explanation of pseudo-MPECs

 
 Astrometry: 
     A10IfLQ* C2022 07 26^^0L+R5mX[lh0t_s1]YT+Y#1t;'F]?+GEAstrometryj4^Xo*!ZXM22
     A10IfLQ  C2022 07 26`-iwfw\yw_1KWR$cKc1p-e*kCTOx4-^AQ6redacted;aNr`L2KQCM22
     A10IfLQ  C2022 07 26R*!o/drEd=imA,TZM+phZBO`.T7R`uSV+r6eD\Oa%H.FTc\nPJ(sM22
     A10IfLQ  C2022 07 26Sh'.3H!g$,9;K]Q!xVI-#J]9r3d!`qiBYIU(%v,e5!7LR8Kb;2erM22
     A10IfLQ KC2022 07 29\2.5v/PmSrMM/[JoG9q^f#Pkfk#+c9-uGvK1LsdD@r/v$#iua/y7M21
     A10IfLQ KC2022 07 29e\#pEpWurSF)?G$?AvNwL-(;K[,h]JhT[c5/co)0sH+JQ)P^]F@SM21
     A10IfLQ* C2022 07 29rV_RV(5[pCYI+B2KBNN(RYe(=O7U!m;S$wh9m2U[;HoNDCVLu57XW68
     A10IfLQ  C2022 07 29,:-CIbk;o;]b.o=h+2kS(sQ%O$!o3$ctG3\lQw;m4#U^uDi-5v5bW68
     A10IfLQ  C2022 07 29';7+p/!]3dW4Q9')jBP$+bu)+(r[rZcgKH74#tGBQ\sclickD=V4W68
     A10IfLQ  C2022 07 299,l9l/4OnqH*C\G0boGvsuD;ZhJQE8j+^^QmL'w)F@?m*'b+$5*,W68
     A10IfLQ KC2022 07 31\sVgrHW#-;UTB6p?s`8cj@vxoVc6Ms#EB4)*1]LGTk@JQ3hv-nL+L87
     A10IfLQ KC2022 07 31c(_cEu6sR5of8xpI5BKChEn?X\oe*AJm$c1#8!vjkE1)w',3$WVlL87
     A10IfLQ 7C2022 07 31#$e5:5!D0%l4iWl[2BL#h]`emRv$/h'g.=(CrSQLBt]4VpV(Mx?hL81
     A10IfLQ 7C2022 07 317[p4_YVAGd8)a0coa67\M%lherew5tK4m9,*Ng6ub]9@!0)JLsabL81
     A10IfLQ  C2022 08 01G@TDU(ICu)YD,x2BMtYfuyA_\ke0,MW[U6cYY8ucrtIJ,EwZ$=/WW68
     A10IfLQ  C2022 08 019om^Z#kb4KCDaa#uyR^KLau2,LmdjVu)Khg`F2HZ^E$E,[@`hX1:W68
     A10IfLQ  C2022 08 01sa'Y3NC#*r`0;Npa:rAR=x$[rdI+O$6E^JM['W.hgIp700c+c[+;W68
     A10IfLQ  C2022 08 01_Ag#DrRQi;i9h$@2bg5XYECB+`#jU1B?0orLaBiT0mN0Z7RoI1oFW68
     A10IfLQ 1C2022 08 01-,ej;'V8Gfa?laZ4*hEw/1-a'1LvWZPE@3vKMb2FUMZiWHh/?x@9Q62
     A10IfLQ 1C2022 08 01!7fQI'gEH%xS;lSJ@49w6\`UZ[\s\M94v9o=8qrpxK1j$5dlN)d^Q62
     A10IfLQ KC2022 08 02x]tLtHebD%Wb=OZ5y2`dV?yA1']nl_-jw'q)\YNajjXs$HL6b6l'I47
     A10IfLQ KC2022 08 02igmqJa=dna;vX2Y:EaUiQgc/i5yRlYI3Lt^47\S=2e)lY(S4q+U4I47
     A10IfLQ KC2022 08 02nE$nw^:0-M](1Ksg-L*@732p;e^gJn!?m%gjc'TqT7S@L-Jyljj%M21
     A10IfLQ KC2022 08 03V;uuSbFGc?:C,^`g9WA*0;G]IK6;oZtKuoO1PO?Er%)Xlvjh[T)\M21
     A10IfLQ KC2022 08 03k,-[!v'7E'@W(q,!X[yj'P4o1CSm4_TJaVf77W\xmISee]Vdnj4YM21
     A10IfLQ KC2022 08 04ggZAjl2'#o!$pVi[9bkX06lj#3pYm+_iuQ!WUJW0g157hXr'td9+X02
     A10IfLQ KC2022 08 04_uWLE7tPvc(]7i:!0%jGmIsOw7h(7(WIT#`N-6k30p/Sd1cj!d7$X02
     A10IfLQ KC2022 08 05]fu/*f7b5E?ONLf?`for*)0n\O%ysc0_!QaP:E+a,P[$-!xG`'WT194
     A10IfLQ KC2022 08 05`Y=Y9[Dx6O9fi9(th$[$]h%[5eF?Z-RR@FgD#m8i\QK0+:5frTw-194
     A10IfLQ  C2022 08 05icIj\^wijq5W63Z]K#tVN*bBsN:k)8xLUp7`GP?;a/OulTxf1KMIK91
     A10IfLQ  C2022 08 05D!cj^UBe0x[^)\hR)1[$W5Vx]IM`G)IkAY4`i2BEK%(m'ZQl;U#*K91
     A10IfLQ  C2022 08 052!_I$f/LoXqkk+Q5rMZw,bDgvu3kQ7P=85f=!uCK-:py!4LOnI51K91
     A10IfLQ  C2022 08 05m#ai6-tM]7@r#7Mx4R_NH^(JLTSu#B,KEG:6T4=7K7c(NkZbC?kFK91
     A10IfLQ  C2022 08 05XsJ*NW%+yeVy3JiA^,YcxvkLA%5eEe#S5a[FggERwx?Hga`Nt$LJW68
     A10IfLQ  C2022 08 05oxlOg1tGvQUe861%W02UcQWPlqXfu*7E])t$:Hjy[UkK@K)*]8mhW68
     A10IfLQ  C2022 08 05oD[fV!b;8-xu[Vi)\Y(q4sC.DL9[d,J3*_S;`;VS.N]d@!wHLfvoW68
     A10IfLQ  C2022 08 05NtuA09N42sZ'3O]f,koC0gdef7*a376T!*\50I.jPut4bY1Iixg.W68
     A10IfLQ  C2022 08 06T!pa4awBb[%wlN_\X[0Fw6explanation.:I,'X5XW,sEmJh0,G-K93
     A10IfLQ  C2022 08 06xum4-(ET%5Z3)]s1ouF'-,RT%@d1gqcQJFPXKfl8IO1ZEa[LnA'uK93
     A10IfLQ  C2022 08 06,A_qb14Y)e]*;/\-H+63@[NUbvvCwL)reTZPh94SvIkM_xuk5ceJK93
     A10IfLQ  C2022 08 067tf4J/1vl)F=l4WB-xkyLQQ!vf;kV5Wj9AUj38,4URHf3DN16'7AK93
     A10IfLQ  C2022 08 07Xm=y12jg!!1:B@*0X6DhCF.Vk\A[c3vsu7+eY`fDce+Mwuq?qNNdM22
     A10IfLQ  C2022 08 07JwN]S$cyTegK^2LGQ1t(,EH%qPS3:#eB:rF#yE2d=y61IMxE3wG8M22
     A10IfLQ  C2022 08 07nwF\7#!ZsZur-7C-'yrwIiJ!h7R5P!fP]#-87K1r!^R.OOoVOB-RM22
     A10IfLQ  C2022 08 071W-yH_hx`T(w165#;!O9'%h0Nx9p+k[R4d8=R0EPv5?y+tN!3/!sM22
     A10IfLQ  C2022 08 07US3%^XaT1u?IR\U[+8K%kVysWg\8hVmviL4G3iXc.[;D7WYvJ*U;M22
     A10IfLQ  C2022 08 07`/irvK0d'W:J)OLq^ZL@uJ1,)aVh=L(L;@d@HA[L%0xvN7VT1QXBM22
     A10IfLQ  C2022 08 077a]nOTtXZ52\Uw#W^^wH6svMO*^ZbZr#r@SL:ea)wC^tpm8Tj`jdM22
     A10IfLQ 4C2022 08 146m@V(\kT`ctm5hXPq/t/^N%Qg3uMX9P-^,iuwC5`q(P9:dITs-]SW88
     A10IfLQ 4C2022 08 148Jf4QDMot4.[W)2MK#:](=l%O/=SOQ*NYGb]%EJYcw_=#17,N]bSW88

Station data:
(194) Tivoli  (S23.461594 E18.009400)  Namibia.  Observer G. Rhemann.
   Measurer M. Jaeger. 0.3-m f/3.6 reflector + CCD.
(I47) Pierre Auger Observatory, Malargüe  (S35.495440 W69.449700)  Argentina.
    Observer M. Mašek. 0.3-m f/6.8 reflector + CCD.
(K91) Sutherland-LCO A  (S32.380540 E20.810190)  South Africa.  Observers T.
   Lister, S. Greenstreet, E. Gomez. Measurer T. Lister. 1.0-m f/8
   Ritchey-Chrétien + CCD.
(K93) Sutherland-LCOGT C  (S32.380667 E20.810110)  South Africa.  Observer R.
   Miles. 1.0-m f/8.0 Ritchey-Chrétien + CCD.
(L81) Skygems Namibia Remote Observatory  (S23.236420 E16.361690)  Namibia.
   Observers L. Buzzi, L. Demetz. Measurers L. Buzzi, G. Galli, A. Aletti.
   0.51-m f/6.7 astrograph + CCD.
(L87) Moonbase South Observatory, Hakos  (S23.236420 E16.361890)  Namibia.
   Observer G. Duszanowicz. 0.36-m f/7.7 reflector + CCD.
(M21) Schiaparelli Southern Observatory, Hakos  (S23.236549 E16.361440)
   Namibia.
(M22) ATLAS South Africa, Sutherland  (S32.380156 E20.810590)  South Africa.
(Q62) iTelescope Observatory, Siding Spring  (S31.273286 E149.064420)
   Australia/NSW.  Observer H. Sato. 0.51-m f/6.8 astrograph + CCD + f/4.5
   focal reducer0.43-m f/6.8 astrograph + CCD + focal reducer0.43-m f/6.8
   astrograph + CCD0.10-m f/5 astrograph + CCD0.127-m f/5.6 refractor +
   CCD0.50-m f/6.8 reflector + CCD0.30-m f/9 reflector + CCD.
(W68) ATLAS Chile, Rio Hurtado  (S30.471010 W70.764980)  Chile.
(W88) Slooh.com Chile Observatory, La Dehesa  (S33.269126 W70.534300)  Chile.
    Observer G. Gašparović. Measurers B. Lütkenhöner, G. Gasparovic, Y. Chen,
   G. Y. Gašparović, M. Kumrucu-Lohmiller, N. Paul, R. W. Anderson. 0.43-m
   f/6.8 Corrected Dall- Kirkham + CCD0.35-m f/11.0 Schmidt-Cassegrain + CCD.
(X02) Telescope Live, El Sauce  (S30.470666 W70.764830)  Chile.  Observers E.
   Guido, M. Rocchetto, E. Bryssinck, M. Fulle, G. Milani, C. Nassef, G.
   Savini, A. Valvasori. Measurer E. Guido. 0.6-m f/6.5 astrograph + CCD.

Orbital elements:  A10IfLQ
   Perihelion 2022 Mar 23.08745 +/- 18.4 TT =  2:05:55 (JD 2459661.58745)
Epoch 2022 Aug 14.0 TT = JDT 2459805.5                        AutoNEOCP
M   0.00128180 +/- 0.0028           (J2000 ecliptic)
n   0.00000890 +/- 2.16e-5          Peri.  271.40755 +/- 1.3
a2304.91338 +/- 2640                Node    49.70808 +/- 0.09
e   0.9967685 +/- 0.00488           Incl.   71.06861 +/- 0.015
P 110657                   H  9.9   G  0.15   U  5.5
q 7.44825841 +/- 0.0139    Q 4602.37851 +/- 5111
49 of 50 observations 2022 July 26-Aug. 14; mean residual 0".50
Residuals in arcseconds: 
220726 M22  .29-  .44+    220801 W68  1.2-  .19+    220805 W68  .13+  .39+    
220726 M22  .55+  .70+    220801 Q62  .15+  .39-    220805 W68  .78-  .85+    
220726 M22  .19-  .49-    220801 Q62  .26-  .32-    220805 W68  .49-  1.0-    
220726 M22  .38-  1.0-    220802 I47  .23+  .59-    220806 K93  .30+  .62+    
220729 M21  .43+  .67+    220802 I47  .53+  1.4-    220806 K93  .30+  .62+    
220729 M21  .12+  .36+    220802 M21  .34-  .26-    220806 K93  .30+  .61+    
220729 W68  .81+  .53+    220803 M21  .36-  .73-    220806 K93  .23+  .60+    
220729 W68  .71-  .51-    220803 M21  .29-  .41-    220807 M22( .08-  2.0+)   
220729 W68  .47-  .52+    220804 X02  .06+  .27+    220807 M22  1.1-  .30+    
220729 W68  .02+  .74+    220804 X02  .37+  .48+    220807 M22  .11+  .49-    
220731 L87  .10-  .61-    220805 194  .15-  .26+    220807 M22  .08+  .09+    
220731 L87  .03+  .68-    220805 194  .07+  .05-    220807 M22  .11-  .37-    
220731 L81  .37+  .39+    220805 K91  .12+  .40+    220807 M22  .10-  .12+    
220731 L81  .33+  .12+    220805 K91  .24+  .49+    220807 M22  .72+  .77-    
220801 W68  .60-  .01+    220805 K91  .21+  .38+    220814 W88  .21+  .04+    
220801 W68  .72+  .50+    220805 K91  .18+  .46+    220814 W88  .19-  .29-    
220801 W68  .07+  .39-    220805 W68  .57-  .83-    

Ephemerides (geocentric):
Date (UTC) HH   RA             Dec           delta  r     elong  mag " sig PA
---- --------  ------------   ------------  ------ ------ -----  --- --------
2022 08 16 03  03 45 00.767   -60 40 31.31  7.2353 7.5046 101.6 19.2 .408  76
2022 08 16 04  03 45 00.801   -60 40 40.67  7.2352 7.5047 101.6 19.2 .411  76
2022 08 16 05  03 45 00.833   -60 40 50.03  7.2351 7.5047 101.6 19.2 .414  76
2022 08 16 06  03 45 00.863   -60 40 59.39  7.2350 7.5047 101.6 19.2 .417  76
2022 08 16 07  03 45 00.892   -60 41 08.75  7.2349 7.5048 101.6 19.2 .420  76
2022 08 16 08  03 45 00.918   -60 41 18.11  7.2348 7.5048 101.6 19.2 .424  76
2022 08 16 09  03 45 00.943   -60 41 27.48  7.2347 7.5048 101.6 19.2 .427  76
2022 08 16 10  03 45 00.965   -60 41 36.85  7.2346 7.5049 101.6 19.2 .430  76
2022 08 16 11  03 45 00.986   -60 41 46.22  7.2345 7.5049 101.7 19.2 .433  76
2022 08 16 12  03 45 01.005   -60 41 55.59  7.2344 7.5049 101.7 19.2 .436  76
2022 08 16 13  03 45 01.022   -60 42 04.97  7.2343 7.5050 101.7 19.2 .440  77
2022 08 16 14  03 45 01.037   -60 42 14.34  7.2342 7.5050 101.7 19.2 .443  77
2022 08 16 15  03 45 01.051   -60 42 23.72  7.2341 7.5050 101.7 19.2 .446  77
2022 08 16 16  03 45 01.062   -60 42 33.10  7.2340 7.5051 101.7 19.2 .449  77
2022 08 16 17  03 45 01.072   -60 42 42.49  7.2339 7.5051 101.7 19.2 .453  77
2022 08 16 18  03 45 01.079   -60 42 51.87  7.2338 7.5051 101.7 19.2 .456  77
2022 08 16 19  03 45 01.085   -60 43 01.26  7.2337 7.5052 101.7 19.2 .459  77
2022 08 16 20  03 45 01.089   -60 43 10.65  7.2336 7.5052 101.7 19.2 .463  77
2022 08 16 21  03 45 01.091   -60 43 20.04  7.2335 7.5052 101.7 19.2 .466  77
2022 08 16 22  03 45 01.091   -60 43 29.43  7.2335 7.5052 101.7 19.2 .469  77
2022 08 16 23  03 45 01.089   -60 43 38.83  7.2334 7.5053 101.7 19.2 .473  77
2022 08 17 00  03 45 01.086   -60 43 48.23  7.2333 7.5053 101.8 19.2 .476  77
